Time,TemperatureF,DewpointF,PressureIn,WindDirection,WindDirectionDegrees,WindSpeedMPH,WindSpeedGustMPH,Humidity,HourlyPrecipIn,Conditions,Clouds,dailyrainin,SoftwareType,DateUTC
2013-05-15 00:08:00,75.7,51.0,29.66,SSE,157,7.3,-999.0,42,-99.99,,,0.00,Acu-Link.com,2013-05-15 05:08:00,
2013-05-15 00:23:00,75.6,51.5,29.66,SSW,202,4.2,-999.0,43,-99.99,,,0.00,Acu-Link.com,2013-05-15 05:23:00,
2013-05-15 00:39:00,75.2,51.8,29.65,SSW,202,8.3,-999.0,44,-99.99,,,0.00,Acu-Link.com,2013-05-15 05:39:00,
2013-05-15 00:54:00,74.8,52.0,29.66,SW,225,5.3,-999.0,45,-99.99,,,0.00,Acu-Link.com,2013-05-15 05:54:00,
2013-05-15 01:09:00,74.1,52.6,29.66,SW,225,5.8,-999.0,47,-99.99,,,0.00,Acu-Link.com,2013-05-15 06:09:00,
2013-05-15 01:25:00,74.1,52.6,29.67,SSW,202,3.7,-999.0,47,-99.99,,,0.00,Acu-Link.com,2013-05-15 06:25:00,
2013-05-15 01:40:00,73.8,53.4,29.67,SSW,202,3.7,-999.0,49,-99.99,,,0.00,Acu-Link.com,2013-05-15 06:40:00,
2013-05-15 01:55:00,72.9,53.2,29.67,SW,225,4.2,-999.0,50,-99.99,,,0.00,Acu-Link.com,2013-05-15 06:55:00,
2013-05-15 02:10:00,73.0,53.2,29.67,SW,225,5.3,-999.0,50,-99.99,,,0.00,Acu-Link.com,2013-05-15 07:10:00,
2013-05-15 02:26:00,72.3,53.1,29.68,WNW,292,0.0,-999.0,51,-99.99,,,0.00,Acu-Link.com,2013-05-15 07:26:00,
2013-05-15 02:41:00,71.1,53.6,29.70,West,270,4.7,-999.0,54,-99.99,,,0.00,Acu-Link.com,2013-05-15 07:41:00,
2013-05-15 02:56:00,70.3,53.9,29.70,West,270,5.3,-999.0,56,-99.99,,,0.00,Acu-Link.com,2013-05-15 07:56:00,
2013-05-15 03:11:00,69.3,53.4,29.71,West,270,3.7,-999.0,57,-99.99,,,0.00,Acu-Link.com,2013-05-15 08:11:00,
2013-05-15 03:26:00,68.4,53.5,29.71,West,270,4.2,-999.0,59,-99.99,,,0.00,Acu-Link.com,2013-05-15 08:26:00,
2013-05-15 03:42:00,67.8,53.4,29.72,NNE,22,0.0,-999.0,60,-99.99,,,0.00,Acu-Link.com,2013-05-15 08:42:00,
2013-05-15 03:57:00,65.8,53.3,29.72,North,0,0.0,-999.0,64,-99.99,,,0.00,Acu-Link.com,2013-05-15 08:57:00,
2013-05-15 04:12:00,65.3,53.6,29.72,North,0,1.1,-999.0,66,-99.99,,,0.00,Acu-Link.com,2013-05-15 09:12:00,
2013-05-15 04:27:00,63.7,52.9,29.72,North,0,0.0,-999.0,68,-99.99,,,0.00,Acu-Link.com,2013-05-15 09:27:00,
2013-05-15 04:42:00,63.1,53.2,29.74,North,0,0.0,-999.0,70,-99.99,,,0.00,Acu-Link.com,2013-05-15 09:42:00,
2013-05-15 04:58:00,62.4,52.9,29.74,North,0,0.0,-999.0,71,-99.99,,,0.00,Acu-Link.com,2013-05-15 09:58:00,
2013-05-15 05:13:00,61.7,53.3,29.73,North,0,0.0,-999.0,74,-99.99,,,0.00,Acu-Link.com,2013-05-15 10:13:00,
2013-05-15 05:28:00,61.2,53.2,29.74,North,0,0.0,-999.0,75,-99.99,,,0.00,Acu-Link.com,2013-05-15 10:28:00,
2013-05-15 05:43:00,61.3,54.0,29.74,North,0,0.0,-999.0,77,-99.99,,,0.00,Acu-Link.com,2013-05-15 10:43:00,
2013-05-15 05:59:00,61.2,53.6,29.74,North,0,0.0,-999.0,76,-99.99,,,0.00,Acu-Link.com,2013-05-15 10:59:00,
2013-05-15 06:14:00,60.4,53.5,29.74,North,0,0.0,-999.0,78,-99.99,,,0.00,Acu-Link.com,2013-05-15 11:14:00,
2013-05-15 06:29:00,60.8,53.9,29.74,North,0,0.0,-999.0,78,-99.99,,,0.00,Acu-Link.com,2013-05-15 11:29:00,
2013-05-15 06:45:00,63.3,54.9,29.75,North,0,0.0,-999.0,74,-99.99,,,0.00,Acu-Link.com,2013-05-15 11:45:00,
2013-05-15 07:00:00,66.6,55.7,29.75,South,180,1.7,-999.0,68,-99.99,,,0.00,Acu-Link.com,2013-05-15 12:00:00,
2013-05-15 07:15:00,68.0,56.2,29.75,South,180,3.2,-999.0,66,-99.99,,,0.00,Acu-Link.com,2013-05-15 12:15:00,
2013-05-15 07:30:00,69.1,57.3,29.76,SSW,202,0.0,-999.0,66,-99.99,,,0.00,Acu-Link.com,2013-05-15 12:30:00,
2013-05-15 07:46:00,70.3,58.4,29.76,SSW,202,2.7,-999.0,66,-99.99,,,0.00,Acu-Link.com,2013-05-15 12:46:00,
2013-05-15 08:01:00,72.1,58.8,29.77,West,270,3.7,-999.0,63,-99.99,,,0.00,Acu-Link.com,2013-05-15 13:01:00,
2013-05-15 08:16:00,73.8,58.6,29.76,SW,225,4.7,-999.0,59,-99.99,,,0.00,Acu-Link.com,2013-05-15 13:16:00,
2013-05-15 08:46:00,75.0,59.2,29.77,SW,225,4.7,-999.0,58,-99.99,,,0.00,Acu-Link.com,2013-05-15 13:46:00,
2013-05-15 09:02:00,75.7,58.9,29.77,SSW,202,3.2,-999.0,56,-99.99,,,0.00,Acu-Link.com,2013-05-15 14:02:00,
2013-05-15 09:17:00,76.5,59.6,29.77,SSW,202,3.7,-999.0,56,-99.99,,,0.00,Acu-Link.com,2013-05-15 14:17:00,
2013-05-15 09:32:00,76.8,59.4,29.76,SW,225,3.7,-999.0,55,-99.99,,,0.00,Acu-Link.com,2013-05-15 14:32:00,
2013-05-15 09:47:00,78.1,60.1,29.76,SW,225,4.2,-999.0,54,-99.99,,,0.00,Acu-Link.com,2013-05-15 14:47:00,
2013-05-15 10:02:00,80.4,60.6,29.76,SW,225,2.2,-999.0,51,-99.99,,,0.00,Acu-Link.com,2013-05-15 15:02:00,
2013-05-15 10:17:00,81.3,60.3,29.76,South,180,4.7,-999.0,49,-99.99,,,0.00,Acu-Link.com,2013-05-15 15:17:00,
2013-05-15 10:32:00,82.4,60.1,29.76,North,0,0.0,-999.0,47,-99.99,,,0.00,Acu-Link.com,2013-05-15 15:32:00,
2013-05-15 10:47:00,83.8,60.2,29.76,West,270,8.3,-999.0,45,-99.99,,,0.00,Acu-Link.com,2013-05-15 15:47:00,
2013-05-15 11:33:00,82.2,58.7,29.77,NW,315,5.3,-999.0,45,-99.99,,,0.00,Acu-Link.com,2013-05-15 16:33:00,
2013-05-15 11:48:00,86.2,59.7,29.76,West,270,4.2,-999.0,41,-99.99,,,0.00,Acu-Link.com,2013-05-15 16:48:00,
2013-05-15 12:03:00,88.2,61.5,29.76,West,270,3.2,-999.0,41,-99.99,,,0.00,Acu-Link.com,2013-05-15 17:03:00,
2013-05-15 12:19:00,88.7,59.8,29.76,West,270,3.7,-999.0,38,-99.99,,,0.00,Acu-Link.com,2013-05-15 17:19:00,
2013-05-15 12:34:00,88.5,60.3,29.76,NE,45,4.2,-999.0,39,-99.99,,,0.00,Acu-Link.com,2013-05-15 17:34:00,
2013-05-15 12:49:00,86.0,60.2,29.75,SW,225,4.2,-999.0,42,-99.99,,,0.00,Acu-Link.com,2013-05-15 17:49:00,
2013-05-15 13:04:00,84.9,60.5,29.75,NNE,22,6.3,-999.0,44,-99.99,,,0.00,Acu-Link.com,2013-05-15 18:04:00,
2013-05-15 13:20:00,83.5,60.5,29.75,NE,45,5.3,-999.0,46,-99.99,,,0.00,Acu-Link.com,2013-05-15 18:20:00,
2013-05-15 13:35:00,81.9,60.3,29.75,East,90,9.9,-999.0,48,-99.99,,,0.00,Acu-Link.com,2013-05-15 18:35:00,
2013-05-15 13:50:00,82.2,60.5,29.74,ENE,67,6.3,-999.0,48,-99.99,,,0.00,Acu-Link.com,2013-05-15 18:50:00,
2013-05-15 14:20:00,83.1,60.1,29.74,East,90,7.3,-999.0,46,-99.99,,,0.00,Acu-Link.com,2013-05-15 19:20:00,
2013-05-15 14:35:00,84.7,60.3,29.73,ESE,112,8.3,-999.0,44,-99.99,,,0.00,Acu-Link.com,2013-05-15 19:35:00,
2013-05-15 15:06:00,85.6,61.8,29.72,East,90,6.3,-999.0,45,-99.99,,,0.00,Acu-Link.com,2013-05-15 20:06:00,
2013-05-15 15:21:00,86.2,61.7,29.72,East,90,6.3,-999.0,44,-99.99,,,0.00,Acu-Link.com,2013-05-15 20:21:00,
2013-05-15 15:36:00,85.8,61.3,29.71,East,90,8.3,-999.0,44,-99.99,,,0.00,Acu-Link.com,2013-05-15 20:36:00,
2013-05-15 15:52:00,86.2,61.7,29.70,ESE,112,8.9,-999.0,44,-99.99,,,0.00,Acu-Link.com,2013-05-15 20:52:00,
2013-05-15 16:07:00,85.6,63.0,29.69,ESE,112,6.8,-999.0,47,-99.99,,,0.00,Acu-Link.com,2013-05-15 21:07:00,
2013-05-15 16:22:00,85.1,62.0,29.69,ENE,67,9.4,-999.0,46,-99.99,,,0.00,Acu-Link.com,2013-05-15 21:22:00,
2013-05-15 16:53:00,86.5,62.6,29.68,SE,135,5.8,-999.0,45,-99.99,,,0.00,Acu-Link.com,2013-05-15 21:53:00,
2013-05-15 17:08:00,86.5,63.8,29.68,ESE,112,8.3,-999.0,47,-99.99,,,0.00,Acu-Link.com,2013-05-15 22:08:00,
2013-05-15 17:24:00,86.2,63.6,29.68,ESE,112,8.9,-999.0,47,-99.99,,,0.00,Acu-Link.com,2013-05-15 22:24:00,
2013-05-15 17:39:00,86.9,63.0,29.67,ESE,112,9.9,-999.0,45,-99.99,,,0.00,Acu-Link.com,2013-05-15 22:39:00,
2013-05-15 18:09:00,85.8,62.0,29.67,ESE,112,10.9,-999.0,45,-99.99,,,0.00,Acu-Link.com,2013-05-15 23:09:00,
2013-05-15 18:25:00,84.2,62.9,29.67,ESE,112,9.4,-999.0,49,-99.99,,,0.00,Acu-Link.com,2013-05-15 23:25:00,
2013-05-15 18:55:00,82.9,62.9,29.66,East,90,7.8,-999.0,51,-99.99,,,0.00,Acu-Link.com,2013-05-15 23:55:00,
2013-05-15 19:10:00,81.1,58.9,29.67,ENE,67,13.0,-999.0,47,-99.99,,,0.00,Acu-Link.com,2013-05-16 00:10:00,
2013-05-15 19:25:00,80.6,58.5,29.67,ENE,67,10.4,-999.0,47,-99.99,,,0.00,Acu-Link.com,2013-05-16 00:25:00,
2013-05-15 19:56:00,79.3,57.9,29.68,ENE,67,11.9,-999.0,48,-99.99,,,0.00,Acu-Link.com,2013-05-16 00:56:00,
2013-05-15 20:27:00,78.1,56.8,29.69,East,90,7.3,-999.0,48,-99.99,,,0.00,Acu-Link.com,2013-05-16 01:27:00,
2013-05-15 20:43:00,76.3,58.9,29.70,NNW,337,4.2,-999.0,55,-99.99,,,0.00,Acu-Link.com,2013-05-16 01:43:00,
2013-05-15 20:58:00,73.0,65.7,29.71,NNW,337,6.8,-999.0,78,-99.99,,,0.00,Acu-Link.com,2013-05-16 01:58:00,
2013-05-15 21:13:00,71.6,67.2,29.72,WNW,292,7.3,-999.0,86,-99.99,,,0.01,Acu-Link.com,2013-05-16 02:13:00,
2013-05-15 21:28:00,70.7,67.6,29.73,West,270,1.7,-999.0,90,-99.99,,,0.04,Acu-Link.com,2013-05-16 02:28:00,
2013-05-15 21:43:00,69.8,67.4,29.74,NW,315,4.7,-999.0,92,-99.99,,,0.14,Acu-Link.com,2013-05-16 02:43:00,
2013-05-15 21:59:00,69.3,67.8,29.75,East,90,0.0,-999.0,95,-99.99,,,0.18,Acu-Link.com,2013-05-16 02:59:00,
2013-05-15 22:14:00,69.3,68.1,29.75,SW,225,0.0,-999.0,96,-99.99,,,0.19,Acu-Link.com,2013-05-16 03:14:00,
2013-05-15 22:29:00,69.3,67.8,29.75,WSW,247,0.0,-999.0,95,-99.99,,,0.20,Acu-Link.com,2013-05-16 03:29:00,
2013-05-15 22:44:00,68.9,67.4,29.76,SW,225,0.0,-999.0,95,-99.99,,,0.21,Acu-Link.com,2013-05-16 03:44:00,
2013-05-15 23:00:00,69.3,67.8,29.76,South,180,0.0,-999.0,95,-99.99,,,0.21,Acu-Link.com,2013-05-16 04:00:00,
2013-05-15 23:15:00,69.4,67.6,29.76,SSW,202,0.0,-999.0,94,-99.99,,,0.21,Acu-Link.com,2013-05-16 04:15:00,
2013-05-15 23:30:00,69.8,67.4,29.76,SSW,202,2.7,-999.0,92,-99.99,,,0.21,Acu-Link.com,2013-05-16 04:30:00,
2013-05-15 23:45:00,70.0,67.2,29.76,South,180,3.7,-999.0,91,-99.99,,,0.21,Acu-Link.com,2013-05-16 04:45:00,